Terminal Aerodrome Forecast
Issued by NWS

Home | Current Version | Previous Version | Text Only | Print | Product List | Glossary On
Versions: 1 2 3 4 5 6 7 8 9 10 11 12 13 14 15 16 17 18 19 20 21 22 23 24 25 26 27 28 29 30 31 32
000
FTAK31 PAFA 112339
TAFAOM
TAF
PAOM 112339Z 1200/1224 01011KT P6SM -RA SCT035 BKN080
     FM120600 03005KT P6SM VCSH SCT020 BKN035
     FM121500 24008KT P6SM SCT015 BKN030=

USA.gov is the U.S. government's official web portal to all federal, state and local government web resources and services.